Location: Fort Worth, Tx
(32.7431°N, 97.3695°W)
Time: 07:58:55
(UTC-04:00)

Explorer 11/Cluster Stage 4 - Pass Details

Date: 02 February 2023
Orbit: 466 x 1241 km, 28.8° (Epoch: 02 April)

Event Time Altitude Azimuth Distance (km) Brightness Sun altitude
Exits shadow 05:07:14 26° 143° (SE) 2,187 8.9 -41.5°
Drops below altitude 10° 05:12:54 10° 100° (E) 3,200 10.3 -40.3°
Sets 05:16:22 0° 88° (E) 4,167 11.2 -39.6°
